Location: Melbourne
(37.8666°S, 145.1333°E)
Time: 03:24:24
(UTC+11:00)

Hubble Space Telescope - Visible Passes

Search period start: 24 March 2017 00:00
Search period end: 02 April 2017 23:00
Orbit: 538 x 542 km, 28.5° (Epoch: 21 March)

Date Brightness Start Highest point End Pass type
(mag) Time Alt. Az. Time Alt. Az. Time Alt. Az.
24 Mar 2.6 20:01:21 10° NW 20:04:28 20° N 20:07:35 10° NE visible
24 Mar 3.2 21:41:57 10° NW 21:43:08 15° NW 21:43:08 15° NW visible
25 Mar 2.5 19:51:10 10° NW 19:54:23 21° N 19:57:35 10° NE visible
25 Mar 3.0 21:31:58 10° NW 21:33:40 17° NW 21:33:40 17° NW visible
26 Mar 2.6 19:41:01 10° NW 19:44:17 22° N 19:47:34 10° NE visible
26 Mar 2.9 21:22:02 10° NW 21:24:12 17° NNW 21:24:12 17° NNW visible
27 Mar 2.9 21:12:10 10° NW 21:14:45 16° NNW 21:14:45 16° NNW visible
28 Mar 3.0 21:02:25 10° NW 21:04:44 14° NNW 21:05:19 14° N visible
29 Mar 3.2 20:52:50 10° NW 20:54:36 12° NNW 20:55:56 11° N visible
30 Mar 3.5 20:43:51 10° NNW 20:44:28 10° NNW 20:45:06 10° NNW visible
